Temp
18 17 17 17 17 17 17 16 16 15 15 15 14 14 14 14 14 14 14 14 13 13 13 13 13 13 13 12 12 12 12 11 11 11 11 11 11 11 11 11 11 11 11 11 11 11 11 11 10 10 10 11 11 11 11 11 11 12 12 12 12 11 11 11 12 12 13 12 12 12 13 13 12 12 12 12 12 12 12 12 12 11 11 11 11
18 17 17 17 17 17 16 16 15 15 15 14 14 14 14 14 14 14 14 14 14 14 14 13 13 13 13 13 12 12 12 12 11 11 11 11 11 11 11 11 11 11 11 11 11 10 10 11 10 10 10 10 11 11 11 11 11 12 11 12 12 11 11 11 11 12 12 12 12 12 13 13 12 12 13 12 12 12 12 12 11 11 11 11 11
18 17 17 17 17 16 16 15 15 15 14 14 14 14 14 14 14 14 14 14 14 14 13 13 13 13 13 13 13 12 12 12 11 11 11 11 11 11 11 11 11 11 11 11 11 10 10 10 10 10 10 10 11 11 10 10 11 11 11 11 11 11 11 11 11 11 12 12 12 12 13 12 12 12 13 12 12 12 12 11 11 11 11 11 11
18 17 17 17 16 15 15 15 14 14 14 14 14 14 14 14 14 14 14 14 14 14 13 13 13 13 13 13 13 12 12 12 11 11 11 11 11 11 11 11 11 11 11 11 11 11 10 10 10 10 10 10 11 11 10 10 11 11 11 11 11 11 11 10 11 11 11 12 12 12 12 12 12 12 12 12 12 12 11 11 11 11 11 10 10
18 17 17 16 15 15 15 14 14 14 14 14 13 13 14 14 14 14 14 14 14 13 13 13 13 13 13 13 13 12 12 12 12 11 11 11 11 11 11 11 11 11 11 11 11 10 10 10 10 10 10 10 10 10 10 10 10 10 10 10 11 11 10 10 11 11 11 11 12 12 12 12 12 12 12 12 12 11 11 11 11 11 10 10 10
18 17 16 15 16 16 15 14 14 14 13 13 13 13 14 14 14 14 14 14 14 13 13 13 13 13 13 13 13 13 12 12 12 12 11 11 11 11 11 11 11 11 11 11 10 10 10 10 10 10 10 10 10 9 9 9 10 10 10 10 10 10 10 10 11 11 11 11 12 12 12 12 12 12 12 12 11 11 11 11 10 10 10 10 10
17 17 16 16 16 16 15 14 14 13 13 13 13 13 14 14 14 14 14 14 13 13 13 13 13 13 13 13 13 13 12 12 12 12 11 11 11 11 11 11 11 11 11 11 10 10 10 10 10 10 9 9 9 9 9 9 9 10 10 9 9 9 10 10 10 11 11 11 12 12 12 12 12 12 11 11 10 11 10 10 10 10 10 10 10
17 17 16 16 16 15 14 13 13 13 13 13 13 13 14 14 14 14 14 13 13 13 13 13 13 13 13 13 13 13 12 12 12 12 11 11 11 11 11 11 11 10 10 10 10 10 10 10 10 9 8 8 8 8 8 8 8 9 9 9 9 9 9 10 10 11 11 11 11 11 11 11 11 11 11 10 10 10 10 9 9 9 10 10 10
17 17 16 16 16 15 14 13 13 13 13 13 13 13 14 14 14 14 13 13 13 13 13 12 12 13 13 13 13 12 12 12 12 11 11 11 11 11 11 11 11 10 10 10 10 10 10 10 9 8 8 8 8 8 7 7 7 8 8 8 8 8 9 9 10 10 10 10 11 11 11 11 11 10 10 10 10 10 9 9 9 9 9 9 9
17 16 16 15 15 14 13 13 13 13 13 13 13 14 14 14 13 13 13 12 11 11 12 11 12 12 12 12 12 11 11 11 11 11 11 11 11 11 11 11 11 11 11 10 10 10 10 10 9 8 8 8 8 8 8 8 7 7 7 7 7 8 8 8 9 9 9 10 10 10 10 10 10 10 10 10 9 9 9 8 9 9 9 9 9
16 16 15 14 14 13 13 13 13 13 13 13 13 14 14 14 13 12 12 11 10 10 10 10 11 10 10 11 10 10 10 11 11 11 11 11 11 11 11 11 11 11 11 11 10 10 10 10 9 8 8 8 8 8 8 8 8 8 8 7 7 7 7 8 8 8 8 9 9 9 10 10 10 9 9 9 9 8 8 8 8 9 9 9 9
17 16 16 15 14 13 13 13 13 13 13 13 12 12 13 12 12 11 11 10 10 10 10 9 9 9 10 10 10 10 10 10 10 10 10 10 10 11 11 11 11 11 11 11 11 11 10 10 9 9 9 8 8 8 9 8 8 8 8 8 8 8 7 7 7 7 8 8 8 9 9 9 9 9 9 8 8 8 8 8 8 8 8 8 9
18 17 16 15 14 14 14 14 14 13 13 12 12 12 11 11 11 10 10 10 9 9 9 9 9 9 9 9 10 10 10 10 10 10 10 10 10 10 11 11 11 11 11 11 11 11 10 10 10 9 9 9 8 9 9 9 9 9 9 9 9 8 8 8 7 7 7 7 8 8 8 8 8 8 8 7 7 7 7 8 8 8 8 9 9
18 17 17 16 16 15 14 14 14 13 13 12 11 11 11 11 10 10 9 9 9 9 9 9 9 9 9 10 10 11 10 9 9 9 9 9 9 10 10 11 11 11 11 11 10 10 10 10 10 10 9 9 9 8 8 8 8 9 9 10 10 9 9 8 8 8 7 7 8 8 8 8 8 8 7 7 7 7 7 8 7 8 8 9 9
17 17 17 17 16 15 14 14 13 13 12 11 11 11 11 11 10 9 9 9 8 8 8 9 9 9 9 10 11 11 10 9 9 9 9 9 9 9 9 10 11 11 10 10 10 10 10 10 10 10 10 9 9 8 7 7 7 8 10 10 10 10 10 9 9 8 8 7 7 7 7 7 7 7 7 7 7 8 7 7 7 8 9 9 9
17 17 17 16 15 14 14 14 13 12 11 11 11 11 11 10 10 9 9 9 9 9 9 9 9 9 10 11 11 11 10 9 9 9 8 8 9 9 9 10 10 10 10 10 10 10 10 9 10 10 9 9 8 8 7 7 7 8 10 10 10 10 10 10 9 9 8 8 7 7 7 8 8 8 8 8 8 8 8 8 8 9 9 9 10
18 17 17 16 15 14 14 13 12 12 11 11 11 11 10 10 9 9 10 10 9 9 9 9 10 10 10 11 11 11 9 9 9 8 8 8 8 8 9 9 10 10 10 10 10 10 10 9 9 10 9 9 8 8 7 7 7 8 9 10 10 10 10 10 9 9 8 8 8 8 8 8 8 9 9 9 9 9 8 9 9 9 9 9 10
17 16 16 15 15 14 13 13 12 12 11 12 12 11 10 10 10 10 10 10 10 10 10 10 10 10 10 11 11 10 9 8 8 8 8 7 7 8 9 10 10 10 10 10 10 10 9 9 9 9 9 8 8 8 7 7 7 8 9 9 10 10 10 9 9 8 8 8 8 8 9 9 9 9 9 9 9 9 9 9 9 9 9 9 9
15 15 14 14 14 14 13 13 12 12 12 12 11 11 10 10 10 10 11 11 11 11 11 11 11 10 10 10 10 9 8 8 8 8 7 7 7 8 9 10 11 11 10 10 10 10 9 8 8 8 8 8 8 7 7 7 7 7 8 9 9 10 9 8 8 8 8 8 8 9 10 10 10 10 10 10 10 9 9 9 9 9 9 9 9
16 15 14 14 14 14 13 13 12 12 12 11 11 11 11 10 10 11 11 11 11 10 10 10 10 10 10 10 9 9 8 8 8 8 7 7 7 8 9 10 11 11 11 10 11 10 10 9 8 8 8 8 7 7 7 7 7 7 7 8 9 9 8 8 8 8 8 8 9 10 10 10 10 10 10 10 10 9 9 9 9 9 9 9 9
16 15 14 14 13 13 13 12 12 12 11 11 11 10 10 10 10 10 10 11 10 10 9 10 10 10 9 9 9 9 8 7 7 7 7 7 7 8 8 9 11 11 11 11 11 11 10 10 9 9 8 8 8 7 7 7 7 7 7 8 8 8 8 8 8 8 9 10 10 10 10 11 11 10 10 10 10 9 9 9 9 9 9 9 9
16 15 14 13 12 12 12 12 11 11 11 10 10 9 9 9 9 10 10 10 9 9 9 10 10 10 9 9 8 8 8 7 7 7 7 7 7 8 8 8 9 10 11 11 12 11 11 11 10 9 8 8 8 8 7 7 7 7 8 8 8 8 8 8 8 9 10 11 10 10 11 11 11 10 10 10 9 9 9 9 9 9 9 9 9
16 15 15 14 12 11 11 11 11 11 10 10 9 9 9 9 10 10 10 9 8 8 9 10 10 9 9 8 8 8 7 7 7 7 7 7 7 8 8 8 9 10 11 11 12 12 12 11 10 9 8 8 8 8 8 8 8 8 8 8 8 8 9 8 9 10 10 10 10 11 11 10 10 10 10 10 9 9 9 9 9 9 9 9 9
16 16 15 14 13 11 10 10 10 10 9 9 9 9 9 9 9 9 9 9 9 9 9 9 9 9 9 8 9 9 8 7 7 7 7 7 8 8 8 8 8 9 10 11 11 11 11 10 9 8 8 8 8 8 8 8 8 8 8 8 9 9 9 9 10 10 10 10 11 11 10 10 10 10 10 10 10 10 10 9 9 9 9 9 9
15 15 14 12 11 10 9 9 9 9 9 9 9 8 9 9 9 8 9 9 10 10 10 9 9 9 9 9 9 9 8 8 7 7 8 7 7 8 7 7 8 9 9 9 10 10 9 9 9 8 8 8 8 8 8 8 9 9 9 9 9 9 9 10 11 10 10 11 11 11 10 10 10 10 10 10 10 10 9 9 9 9 9 9 9
14 13 12 11 10 9 9 9 8 8 8 8 8 8 9 9 9 9 10 10 10 10 10 10 10 10 10 10 10 10 9 8 7 7 7 7 7 7 7 7 8 8 8 8 8 8 9 9 9 8 8 8 8 8 8 9 9 9 9 9 9 9 10 11 11 10 10 11 11 10 10 10 10 10 10 10 10 10 9 9 9 9 9 9 9
13 13 11 10 10 9 9 8 8 8 8 8 9 9 9 10 9 10 10 10 10 10 10 10 10 11 10 10 10 10 9 9 8 7 7 7 6 7 7 7 7 7 8 8 8 8 8 8 8 8 8 8 8 9 9 9 9 9 10 10 10 10 11 11 10 10 11 11 10 10 10 10 10 10 10 10 10 10 9 9 9 9 9 9 10
13 12 11 10 10 9 9 8 8 8 8 9 9 10 10 10 10 10 10 10 11 10 10 10 11 11 11 11 11 10 10 10 9 8 7 7 7 7 7 6 7 7 7 8 8 8 8 8 8 8 8 8 9 9 9 10 10 10 11 11 11 11 11 11 11 11 11 11 10 10 10 10 10 10 10 10 10 9 9 9 9 9 9 9 10
13 13 11 10 10 9 8 8 8 9 9 9 10 10 10 10 11 11 11 11 11 10 11 11 11 11 11 11 11 11 11 10 10 9 8 8 8 8 8 7 7 8 8 8 9 9 9 9 9 9 9 10 10 11 11 12 12 12 12 12 12 12 12 12 11 11 11 10 10 10 10 10 10 10 10 10 10 9 10 10 10 10 9 9 9
13 13 13 11 10 9 9 9 9 9 9 10 10 10 10 10 11 11 11 11 10 11 11 11 10 11 11 12 11 11 11 11 10 9 8 8 8 9 9 8 8 8 8 8 8 8 9 9 9 10 10 11 11 12 12 12 12 12 12 12 12 12 12 11 11 11 11 10 10 10 10 10 10 10 10 10 9 10 10 10 10 10 9 9 9
13 14 13 11 10 9 9 9 9 9 9 10 10 10 10 10 10 11 11 10 10 10 10 10 11 11 12 12 12 11 11 11 10 9 9 9 9 9 9 9 9 8 8 8 8 8 8 9 9 10 11 11 12 12 12 12 12 12 12 12 12 12 11 11 11 11 11 11 11 10 10 10 10 10 10 10 9 10 10 9 10 10 9 9 9
13 13 12 10 9 9 9 9 9 9 10 10 10 10 10 10 10 10 10 10 10 10 10 10 10 11 11 11 11 11 11 11 10 10 9 9 9 8 9 8 8 8 8 8 8 8 9 9 9 10 11 11 12 12 12 12 12 12 12 12 12 12 12 12 11 11 11 11 11 11 10 10 10 10 10 10 10 10 10 9 10 10 9 9 8
12 12 11 10 9 9 9 9 9 9 10 10 10 10 10 10 10 9 9 9 9 10 10 10 10 10 11 11 10 10 10 10 10 9 9 9 8 8 8 8 8 8 7 7 7 8 9 9 10 10 11 11 12 12 12 12 12 12 12 12 12 12 12 12 12 11 11 11 11 11 11 11 10 10 10 10 10 10 10 10 10 10 9 9 8
13 12 11 10 9 9 10 10 10 10 10 10 10 10 10 11 11 10 9 9 9 9 9 9 9 10 10 10 10 9 10 10 9 9 9 8 8 8 8 8 7 7 7 7 7 8 9 9 10 11 11 12 12 13 12 12 12 12 12 12 12 12 12 12 12 12 12 11 11 11 11 10 10 10 10 10 10 10 10 10 10 9 9 9 8
12 11 11 10 10 10 10 10 10 11 11 11 11 11 11 12 11 11 10 9 9 9 9 9 9 9 9 10 9 9 9 9 9 9 8 8 8 8 8 7 7 7 6 7 7 8 9 10 10 11 11 12 13 13 12 12 12 12 12 12 12 12 12 12 12 12 12 11 11 11 11 10 10 10 10 10 10 10 10 10 10 9 9 8 8
11 11 10 10 9 10 10 10 10 11 11 11 11 11 11 11 11 11 11 10 10 9 9 9 9 8 9 9 9 9 9 9 8 8 8 8 8 8 7 7 7 7 7 7 7 8 9 9 10 11 12 12 13 13 13 13 12 12 12 12 12 12 12 12 12 12 11 11 11 10 10 10 11 11 11 11 11 11 10 10 10 9 9 8 8
10 10 9 9 9 9 10 10 10 10 10 10 10 10 11 11 11 11 12 11 10 10 10 10 9 8 8 8 8 8 8 8 8 8 8 8 8 8 7 7 8 9 9 8 8 8 9 9 10 11 11 12 12 12 13 13 12 12 12 12 12 12 12 12 12 11 11 10 10 10 11 11 11 11 11 11 11 11 10 10 10 9 9 8 9
10 10 9 9 9 9 9 9 10 10 10 10 10 11 11 11 12 12 13 12 11 10 11 11 10 9 8 8 7 8 8 8 7 7 7 7 7 7 7 7 8 9 10 10 10 10 10 10 11 11 12 12 12 12 12 12 13 13 12 12 12 12 12 11 11 11 11 11 11 11 11 11 11 11 11 11 11 11 11 10 10 9 9 9 9
11 10 9 9 9 9 10 10 10 10 10 10 11 12 12 12 12 12 12 12 12 11 11 11 11 10 9 8 7 7 7 7 6 6 6 7 7 7 6 7 8 9 10 11 11 11 11 11 11 12 12 12 12 12 12 12 12 12 12 12 12 12 12 11 11 11 11 11 11 11 11 11 11 11 11 11 11 11 11 10 10 10 10 10 9
11 10 9 9 9 9 10 9 9 10 10 10 11 12 12 12 12 12 12 13 12 12 12 12 12 11 10 9 8 7 7 6 6 6 7 7 7 7 7 8 9 10 10 11 11 12 12 12 12 12 12 12 12 12 12 12 12 12 12 12 12 12 12 11 11 11 11 11 11 11 11 11 11 11 11 11 11 11 10 10 10 10 10 10 10
12 10 9 9 9 9 9 9 9 10 10 10 11 12 12 12 12 12 12 13 12 12 11 12 12 12 10 9 8 8 8 8 8 8 7 7 7 7 8 9 9 10 11 11 11 11 12 12 12 12 12 12 12 12 12 12 12 12 12 12 12 12 12 11 11 11 11 11 11 11 11 11 11 11 11 11 11 10 11 11 11 11 10 10 10
12 10 9 9 9 9 9 9 10 10 10 10 11 12 12 12 12 12 12 13 12 12 11 11 12 12 11 10 9 9 9 9 8 8 8 8 8 8 9 9 10 10 11 11 11 11 11 12 12 12 12 12 12 12 12 12 12 12 12 12 12 11 11 11 11 11 11 11 11 11 11 11 11 11 11 11 11 11 11 11 10 10 10 10 10
12 10 9 9 9 9 9 9 10 10 10 11 11 12 12 13 13 12 12 12 12 12 12 12 12 12 11 10 9 9 9 9 9 9 9 9 9 9 9 10 10 11 11 11 11 11 11 11 12 12 12 12 12 12 12 12 12 12 12 12 11 11 11 11 11 11 11 11 11 11 11 11 11 11 11 11 11 11 11 11 11 10 10 10 10
12 10 9 9 10 10 10 10 10 11 11 11 11 12 12 12 13 12 12 13 13 12 12 12 12 11 10 10 9 9 9 10 10 10 10 10 10 10 10 10 11 11 11 11 11 11 11 11 12 12 12 12 12 12 12 12 12 12 12 12 11 11 11 11 11 11 11 11 11 11 11 11 11 11 11 11 11 11 11 11 11 11 11 10 10
13 11 10 10 10 10 10 10 11 11 11 11 12 12 12 12 12 13 13 13 12 12 11 11 11 11 10 9 9 9 10 10 10 10 11 11 11 11 12 11 11 11 11 11 11 11 11 11 11 11 11 11 12 12 12 12 12 12 12 12 12 11 11 11 11 11 11 11 11 11 11 11 11 11 11 11 11 11 11 11 11 10 10 10 10
13 12 11 11 11 11 11 11 11 12 12 12 12 12 12 12 12 13 13 13 12 12 12 12 12 11 11 10 9 9 10 10 10 10 11 11 11 11 11 11 11 11 11 11 11 11 11 11 11 11 11 11 11 11 11 12 12 12 12 12 12 12 12 11 11 11 11 11 11 11 11 11 11 11 11 11 10 10 10 10 10 10 10 9 9
14 13 13 12 12 12 12 12 12 12 12 12 12 13 12 12 12 13 12 12 12 12 12 12 12 12 11 11 10 9 9 10 10 10 10 10 10 11 11 11 11 11 11 11 11 11 11 11 11 11 11 11 11 11 11 11 11 11 12 12 12 12 12 12 12 12 12 11 11 11 10 10 10 10 10 10 10 10 10 10 10 10 10 10 9
14 14 14 13 13 13 13 13 12 12 13 13 12 12 13 12 12 13 13 13 12 12 12 12 12 12 12 11 10 10 9 9 9 9 10 10 10 11 11 10 10 10 11 11 11 11 11 11 11 11 11 11 11 11 11 11 11 11 11 12 12 12 12 12 12 12 12 11 11 10 10 9 9 9 10 10 10 10 10 10 10 10 10 10 10
14 14 13 13 13 12 12 12 11 11 12 11 11 11 11 11 11 12 13 12 11 11 11 12 12 12 11 11 11 10 9 9 9 9 10 10 10 11 10 10 10 10 10 11 11 11 11 11 11 11 11 10 10 11 11 11 11 11 11 11 12 12 11 11 11 11 11 11 10 10 10 9 9 9 10 10 10 10 10 9 9 9 9 9 9
12 12 12 12 12 12 11 11 10 10 10 10 10 10 10 10 10 11 12 11 11 11 11 12 12 11 11 11 11 11 10 9 9 10 10 10 10 10 10 10 10 10 10 10 10 11 11 11 11 11 11 10 10 11 11 11 11 11 11 11 11 11 11 11 11 11 11 11 10 10 9 9 9 9 9 9 9 9 9 9 9 8 8 8 8
11 10 10 11 11 11 11 11 10 10 10 10 10 10 10 10 10 11 11 11 11 12 11 11 11 11 11 11 11 10 10 10 10 10 10 10 10 10 10 10 10 11 11 11 11 11 11 11 11 11 11 11 10 10 11 11 11 11 11 11 11 11 11 11 11 11 11 10 10 10 10 9 9 9 9 9 9 8 8 8 8 8 8 8 8
Height
782 786 789 793 796 799 802 805 807 808 809 812 814 817 820 822 824 826 828 830 831 832 834 835 836 838 839 840 841 842 843 844 846 847 848 849 850 851 852 853 854 854 855 855 856 856 857 857 858 858 858 858 857 857 856 855 854 854 853 853 852 852 851 850 847 844 841 840 838 835 833 831 829 826 824 821 819 816 813 810 807 803 799 795 791
781 785 788 792 795 797 801 803 804 806 808 811 814 816 819 822 824 826 827 829 830 832 833 835 836 837 839 840 841 842 844 845 846 847 848 849 850 851 852 853 854 855 855 856 856 857 857 857 858 859 859 859 858 857 856 856 855 854 854 853 852 852 851 850 848 845 841 839 837 835 832 831 828 825 823 820 817 815 812 808 805 802 798 794 790
780 784 787 790 793 796 799 801 802 805 808 810 813 815 818 821 823 825 827 829 830 832 833 835 836 837 839 840 841 843 844 845 846 847 848 850 850 852 853 853 854 855 856 856 857 857 858 858 859 859 860 859 858 858 857 856 855 855 854 853 853 852 851 850 848 846 842 839 837 834 831 830 827 824 822 819 817 814 811 807 804 800 797 793 789
778 782 785 788 791 794 796 798 801 804 806 809 812 815 818 820 823 825 826 828 830 831 833 834 836 837 838 840 841 842 843 844 846 847 848 849 851 852 853 854 855 855 856 857 857 858 858 859 860 860 860 860 859 858 857 856 856 855 854 854 853 852 851 850 848 846 843 839 836 834 831 829 826 823 821 818 816 813 810 806 802 799 795 791 787
777 779 783 786 789 792 795 797 800 803 806 809 812 815 818 820 822 824 826 828 829 831 833 834 836 837 838 839 840 842 843 844 845 847 848 849 850 852 853 854 855 855 856 857 858 858 859 859 860 860 860 860 859 858 858 857 856 855 855 854 853 851 850 849 847 845 843 839 836 833 831 828 825 823 820 817 814 811 809 805 801 797 792 789 786
775 777 781 784 787 791 794 796 799 802 805 808 811 814 817 820 822 823 825 827 829 830 832 834 835 837 838 839 840 841 843 844 845 846 848 849 850 851 852 853 854 855 856 857 858 859 859 860 860 860 860 860 859 859 858 857 856 856 855 854 853 851 850 848 846 844 842 839 835 832 830 827 825 822 820 817 814 810 806 803 800 796 791 786 783
773 775 779 782 786 789 792 795 798 801 805 808 811 814 817 819 821 823 825 827 829 830 832 834 835 837 838 839 840 842 843 844 846 847 848 849 850 851 852 853 854 855 856 857 858 859 859 860 861 861 860 860 859 859 858 857 857 856 855 854 853 851 849 847 846 843 841 838 835 832 829 827 824 822 819 817 814 810 806 801 796 793 791 786 781
770 773 777 780 784 787 791 794 797 800 804 807 810 813 815 818 820 822 824 826 828 830 831 833 835 837 839 840 841 843 844 845 846 847 848 849 850 851 852 852 853 855 856 857 858 859 859 860 860 860 860 859 859 859 858 857 857 856 855 854 852 851 849 848 846 843 840 838 835 832 829 827 824 822 820 817 813 810 807 803 796 791 788 785 781
769 772 775 779 782 786 789 792 796 800 804 806 809 812 814 817 819 820 823 825 826 829 830 832 835 837 839 841 842 844 845 845 845 846 848 849 850 851 851 852 853 854 855 856 857 858 859 859 859 859 859 858 858 858 857 857 856 856 855 854 852 851 849 848 846 843 841 838 835 832 830 827 824 822 819 817 814 810 807 804 798 792 787 783 780
768 772 775 778 781 784 788 791 795 800 802 805 808 811 813 816 818 819 821 823 825 827 829 831 834 836 837 839 841 843 846 847 846 846 847 848 849 851 851 852 853 854 855 856 857 858 858 858 858 858 858 857 857 857 857 856 856 855 855 854 852 851 850 848 846 844 841 838 835 833 830 827 825 823 820 817 815 811 807 803 798 792 787 781 776
767 770 773 776 779 783 786 790 794 798 801 804 807 809 812 815 817 818 819 822 824 825 827 829 831 834 836 837 838 840 843 845 845 845 847 848 849 850 851 852 852 853 854 855 856 857 858 858 858 858 857 857 857 856 856 856 855 855 854 853 851 850 849 848 846 845 842 839 836 834 831 828 825 823 820 817 814 811 808 803 798 793 788 782 774
764 768 771 774 777 781 785 789 792 796 799 803 805 807 810 813 816 817 818 820 822 824 826 828 830 833 835 836 838 840 841 842 844 845 846 847 848 849 850 851 852 853 854 855 855 856 857 858 858 858 857 857 856 856 855 855 854 853 852 851 850 849 848 847 846 845 843 840 837 834 832 829 826 823 820 818 815 811 807 803 799 794 789 784 776
762 765 769 773 775 779 784 787 790 794 798 800 802 805 808 811 813 815 817 819 821 824 826 828 829 832 833 835 837 839 840 841 843 844 845 847 848 848 849 851 851 852 853 854 855 855 856 857 857 857 857 856 856 855 855 854 853 852 851 849 848 847 846 845 845 843 842 840 837 834 832 829 826 823 821 818 814 811 807 803 799 795 790 784 777
760 764 767 770 774 778 782 785 788 792 795 797 800 803 806 809 811 813 815 817 820 823 826 827 829 831 833 835 836 837 838 839 841 843 845 846 847 848 849 850 851 852 853 853 854 855 855 856 856 856 856 856 855 855 854 853 852 851 850 849 847 846 845 844 843 842 841 839 837 834 831 829 826 823 820 818 814 811 807 802 797 793 789 783 778
759 762 765 769 773 777 780 782 786 789 792 795 798 802 804 806 809 811 813 816 819 822 825 827 828 830 832 834 835 836 836 838 840 842 843 845 847 848 848 850 851 852 852 853 854 854 854 855 855 855 855 855 854 853 853 852 851 850 850 848 847 846 844 843 842 842 840 838 836 833 830 828 825 822 818 816 813 810 806 802 797 792 787 782 776
758 761 764 768 772 775 777 780 784 787 790 793 796 799 802 804 807 809 811 816 819 822 824 826 827 830 831 832 833 834 835 837 839 841 842 844 846 847 848 849 850 851 852 852 853 853 854 854 855 855 855 854 853 853 852 851 850 850 849 848 846 845 844 843 841 840 838 836 834 831 828 826 823 820 817 814 811 808 804 800 796 792 786 780 775
755 759 763 766 769 772 775 778 781 785 788 791 795 797 800 802 805 808 811 814 818 820 822 824 826 828 830 831 832 833 834 836 838 839 841 843 845 847 848 849 849 850 851 852 852 852 853 853 854 854 854 853 852 852 851 850 850 849 848 847 846 844 843 842 840 838 836 834 831 829 826 823 821 818 815 812 809 806 803 798 795 791 786 780 774
754 757 761 764 767 770 774 776 780 783 786 790 793 796 799 802 805 808 811 814 817 819 821 823 825 827 828 830 831 832 833 835 837 839 841 842 844 846 847 848 849 849 850 851 851 852 852 852 852 853 853 852 851 851 851 850 849 849 848 846 845 843 842 841 838 836 834 831 829 827 824 822 819 817 814 812 809 806 803 799 795 791 786 781 775
752 755 758 762 765 769 772 776 779 782 786 789 792 795 798 801 804 808 811 813 816 819 821 823 824 826 827 829 830 831 832 834 836 838 840 842 843 845 846 847 847 848 849 850 850 851 851 851 851 851 851 851 851 850 850 850 849 848 847 846 844 843 842 840 837 835 832 829 827 825 823 821 818 816 814 811 808 806 803 799 796 792 787 782 777
750 754 758 761 765 768 772 775 778 781 785 788 791 795 798 801 804 807 810 813 815 818 820 823 824 826 827 828 830 831 831 832 835 837 839 840 842 843 845 845 846 847 848 848 849 850 850 850 850 850 850 850 850 850 849 849 849 848 847 845 844 843 841 839 836 833 831 828 827 825 822 820 818 815 813 810 808 805 802 799 796 792 788 783 778
749 754 757 760 764 767 770 773 776 779 783 787 790 794 797 800 803 805 809 812 814 817 820 821 823 825 826 828 829 830 831 831 833 835 838 840 841 842 843 843 844 845 846 847 848 848 848 848 848 848 849 849 849 849 849 849 848 847 846 845 844 842 840 838 835 832 830 828 826 824 822 819 817 815 812 810 807 804 801 798 794 792 788 784 779
749 753 756 759 763 765 768 772 775 778 782 785 788 792 795 799 802 805 808 810 812 816 819 820 821 823 825 827 829 830 831 831 832 834 836 838 840 841 841 841 842 843 844 845 846 846 847 847 846 846 848 848 848 848 848 848 847 846 845 844 842 841 839 837 834 832 830 829 826 824 822 819 817 815 812 810 807 804 801 797 794 791 788 785 780
748 751 755 760 763 766 769 771 774 777 780 784 787 791 794 799 802 804 807 809 811 815 818 819 820 821 824 826 828 829 830 830 831 833 835 837 838 840 840 840 841 842 843 844 844 845 845 845 845 845 846 847 847 847 847 847 846 845 844 843 841 840 838 835 833 832 831 828 826 824 822 819 817 815 812 810 807 804 800 797 793 790 786 783 780
748 751 755 759 763 766 769 771 774 777 780 783 787 790 794 798 801 804 806 808 811 813 815 817 818 819 822 824 826 827 828 829 829 831 833 835 837 838 839 840 841 841 842 843 843 843 843 843 843 844 845 846 846 846 846 846 845 844 843 841 840 838 836 834 833 833 831 828 826 824 822 820 817 815 813 810 807 804 801 797 793 789 785 781 778
747 750 754 758 761 765 768 771 774 777 780 783 786 790 793 796 799 802 805 807 809 811 813 815 816 818 820 822 823 825 826 827 828 830 832 833 835 836 837 839 839 840 841 842 841 841 842 842 843 844 844 845 845 845 844 844 843 842 841 840 839 837 835 834 833 832 830 828 826 824 822 820 818 816 813 810 807 804 800 797 793 789 785 781 776
747 751 755 757 761 764 767 771 775 777 780 783 786 789 792 795 798 800 802 805 807 808 810 812 814 816 818 819 821 823 824 825 826 828 830 831 833 834 836 837 838 839 840 840 840 841 841 842 843 843 844 844 844 843 843 842 841 840 839 838 837 836 834 834 833 832 830 828 826 824 822 820 818 816 813 810 807 803 800 797 793 789 785 780 775
747 751 754 756 760 763 766 769 773 777 780 783 786 789 791 794 796 798 800 802 804 806 808 809 811 814 816 818 820 821 822 823 825 826 828 829 831 833 835 836 837 838 839 840 840 841 841 842 842 842 843 842 842 841 841 840 839 838 836 836 835 834 833 833 832 831 829 828 826 825 823 821 818 815 813 810 807 804 801 797 794 790 786 781 776
745 748 751 754 758 761 764 767 771 775 779 781 784 787 789 791 794 796 798 800 801 803 805 807 809 811 813 815 817 818 820 821 822 824 825 827 829 831 833 835 836 837 838 839 840 840 841 841 841 842 841 841 840 839 838 837 836 835 834 834 833 833 832 831 830 829 828 827 826 825 822 820 818 815 813 810 807 804 801 798 795 791 787 782 777
742 746 750 753 757 760 763 766 769 773 777 780 782 785 787 789 792 794 796 798 799 801 803 805 807 809 811 813 814 815 817 818 820 821 823 825 827 829 831 833 834 835 837 838 838 839 839 840 840 840 840 839 838 837 835 834 833 833 833 833 832 831 830 830 829 828 827 827 826 824 822 820 818 815 813 810 807 805 802 799 796 792 788 784 779
739 743 747 751 754 757 761 765 768 771 775 778 781 784 786 789 791 793 795 797 798 800 802 804 806 808 809 811 811 813 814 816 818 820 822 823 826 828 829 831 832 834 835 836 837 837 838 838 838 838 837 836 835 834 833 833 833 832 832 831 831 830 829 829 828 827 827 826 825 823 822 820 818 815 813 811 808 805 803 800 796 792 789 785 781
738 741 745 748 752 755 759 763 766 769 772 776 779 782 785 788 790 792 793 795 797 799 801 803 805 807 808 809 810 811 813 815 816 818 820 823 825 826 828 829 831 832 833 835 836 836 836 836 836 836 835 834 833 832 832 832 831 831 830 830 829 828 828 827 826 826 825 825 823 822 821 819 817 815 813 811 808 806 803 800 797 794 790 787 783
737 740 745 748 751 754 757 760 764 767 771 774 777 779 782 786 788 791 792 794 796 798 800 802 804 805 807 808 809 810 812 814 815 817 819 822 824 826 827 828 829 831 832 833 834 834 834 834 834 834 833 832 831 831 830 830 830 829 828 828 827 827 826 825 825 824 824 823 822 821 819 818 816 814 813 811 808 806 803 801 798 794 791 789 785
736 739 743 747 750 754 757 759 763 766 769 772 774 777 780 783 786 789 791 793 795 797 799 801 803 805 806 807 808 809 811 813 815 817 819 821 823 825 826 828 829 830 831 832 832 832 832 832 832 831 830 830 829 828 828 828 828 827 826 826 825 824 824 823 823 823 822 821 820 819 818 817 816 814 812 810 808 806 803 801 798 795 792 789 786
734 737 740 744 748 752 756 759 762 764 767 770 772 774 777 780 782 786 789 791 794 796 798 800 802 803 805 807 808 809 811 812 815 816 818 820 822 823 825 826 827 828 829 830 830 830 830 830 829 828 828 827 826 826 826 825 825 825 824 824 823 822 822 822 821 821 820 820 819 818 817 816 815 813 811 809 807 805 803 801 798 796 793 790 787
733 736 739 742 746 750 754 757 760 762 765 768 770 772 775 777 780 783 785 788 790 793 795 797 799 801 804 806 807 809 810 812 814 816 817 819 821 822 823 824 825 826 827 827 828 828 828 827 827 826 825 824 824 824 824 823 823 823 822 822 821 821 820 820 819 819 819 819 818 817 816 815 813 812 810 808 806 804 802 801 799 796 794 791 788
733 736 739 743 745 748 752 755 758 760 763 765 768 770 773 775 778 781 783 785 788 790 792 795 797 799 802 804 805 807 809 811 813 815 816 817 819 820 821 822 823 824 825 825 825 825 825 825 824 824 823 822 822 821 821 821 821 821 820 820 819 819 819 818 818 818 818 818 817 816 815 813 812 810 808 806 805 803 802 800 798 796 794 792 788
732 735 739 743 745 748 751 754 757 759 762 764 767 769 772 775 777 779 780 782 785 787 789 791 794 796 799 801 803 805 808 810 812 813 814 815 817 818 819 820 821 822 822 822 822 822 822 822 822 821 821 820 820 819 819 819 819 818 818 818 818 817 817 817 817 817 817 816 815 814 813 811 810 809 807 806 804 803 801 800 798 796 793 791 788
732 734 737 741 744 747 750 753 756 758 761 764 766 768 770 773 775 776 777 779 781 784 785 787 789 792 794 796 799 802 805 807 809 810 811 812 814 815 817 818 819 819 819 819 819 819 819 819 818 818 818 818 817 817 817 817 817 816 816 816 816 815 815 815 815 815 815 814 813 812 810 809 808 807 806 805 803 802 800 799 798 795 793 790 788
732 734 737 740 743 747 749 752 754 757 760 762 764 766 768 770 772 773 775 776 778 781 782 783 785 787 789 792 795 798 801 803 805 806 808 809 811 812 814 816 817 816 816 816 816 815 815 816 815 815 815 815 815 815 815 815 814 814 814 814 814 814 814 814 814 813 813 812 811 810 809 808 807 806 805 804 802 801 799 798 797 795 792 790 788
732 734 737 740 743 746 749 751 754 756 758 760 762 764 766 768 769 771 772 774 775 777 779 780 781 783 786 788 790 792 796 799 801 803 805 807 808 810 812 813 814 813 813 813 813 813 813 813 813 813 813 813 813 813 813 812 812 812 812 812 812 812 812 812 812 812 811 810 810 809 808 807 806 805 804 803 801 800 799 797 795 794 792 790 788
731 734 736 740 743 746 748 751 753 755 757 759 761 762 763 766 767 769 770 771 773 775 776 778 779 780 783 785 786 788 792 795 798 800 802 804 806 807 809 810 810 810 810 810 810 811 811 811 811 811 810 810 811 810 810 810 810 810 810 810 810 810 810 810 810 810 809 808 808 807 806 806 805 804 803 802 800 799 797 795 794 793 791 789 787
731 733 736 739 742 745 747 749 751 753 756 758 759 760 762 763 765 767 767 768 770 772 774 776 777 778 779 781 783 786 789 792 794 796 799 800 802 804 805 806 807 807 807 808 808 808 809 809 809 809 808 809 809 808 808 808 808 808 808 808 808 808 808 808 808 808 807 807 806 805 804 804 803 802 801 800 799 797 796 794 793 792 790 788 787
730 732 735 738 741 743 746 748 750 752 754 756 757 758 760 761 763 765 765 767 768 770 771 773 775 776 777 779 782 784 787 789 791 793 795 797 799 800 801 802 803 804 804 805 805 806 807 807 807 807 807 807 807 807 806 807 807 806 806 806 806 806 806 806 806 806 805 804 804 803 802 802 801 800 799 798 797 796 794 793 791 790 789 787 786
729 732 734 737 739 742 744 746 748 750 751 753 755 757 758 760 761 762 763 765 766 768 769 771 773 775 777 778 780 783 785 787 789 791 792 794 796 797 798 799 799 800 801 802 803 803 804 804 805 805 805 805 805 805 804 804 804 804 804 804 804 804 804 804 804 803 803 803 802 801 801 800 799 798 797 796 795 794 792 791 790 788 787 786 784
729 731 733 735 738 740 742 744 746 748 750 752 753 755 756 758 759 760 761 763 764 766 768 770 772 774 775 777 779 781 782 784 786 787 789 791 792 792 794 795 796 797 798 799 800 801 801 802 802 802 803 803 803 802 802 802 802 802 802 801 801 801 801 801 801 800 800 800 800 799 799 798 797 796 795 794 793 792 791 790 788 787 786 784 783
728 730 731 733 736 738 740 742 744 746 747 749 751 752 754 756 757 758 759 761 762 765 767 768 769 771 773 774 777 778 780 781 783 784 786 788 789 790 792 793 794 795 795 796 797 798 799 799 800 800 800 800 800 800 800 800 800 799 799 799 798 798 798 798 798 797 797 797 797 797 796 796 795 794 793 792 791 790 789 788 787 785 784 783 781
727 728 729 731 733 736 738 740 741 743 745 746 748 749 752 754 755 756 758 759 761 763 764 765 767 768 770 772 774 776 777 779 780 782 784 785 787 788 790 791 791 792 793 794 795 796 796 796 796 797 797 797 798 798 798 797 797 797 796 796 795 795 795 795 795 795 795 795 794 794 794 793 792 792 791 790 789 788 787 786 785 784 782 781 780
726 727 728 729 731 734 736 737 739 741 742 743 745 747 749 751 753 754 756 757 758 760 762 763 765 766 768 770 772 773 775 776 777 779 782 783 784 786 787 788 789 790 791 792 792 793 793 793 793 793 794 794 794 795 795 795 794 794 793 793 793 792 792 792 793 793 792 792 792 792 791 791 790 789 788 788 787 786 785 784 783 782 781 780 778
725 726 727 729 731 732 734 735 737 739 740 742 744 746 747 749 750 751 753 754 756 759 761 762 763 764 766 767 769 770 772 773 775 777 779 780 781 783 784 785 786 787 788 789 790 790 790 790 790 791 791 791 791 791 792 792 791 791 791 790 790 789 790 790 790 790 790 790 789 789 788 788 787 786 786 785 784 783 783 782 781 780 779 778 777
725 726 728 729 730 732 733 735 737 739 740 742 744 745 747 749 750 751 752 753 755 757 759 760 760 762 763 765 766 768 769 770 772 774 776 777 779 780 781 782 783 784 785 786 786 787 787 787 787 787 788 788 788 788 788 788 788 788 788 787 787 787 787 788 788 787 787 787 786 786 785 785 784 784 783 782 782 781 780 780 779 778 777 776 775
725 726 727 729 730 731 733 735 736 738 739 741 743 745 746 748 749 750 751 752 753 755 756 757 758 760 761 763 764 765 767 768 769 771 772 774 775 777 778 779 780 781 781 782 782 783 783 783 783 784 784 784 784 785 785 785 785 785 784 784 784 784 784 784 784 784 784 783 783 783 782 782 782 781 780 780 780 779 778 778 777 776 775 774 773
Wind_Speed
26 24 24 26 26 27 26 23 23 24 24 24 23 21 19 16 14 14 14 14 16 16 15 15 15 14 14 13 13 12 12 11 11 10 10 9 9 9 8 8 8 8 7 7 7 6 6 6 6 5 4 3 3 3 4 4 4 4 5 5 5 6 7 9 9 11 13 14 15 17 17 17 18 19 20 21 22 23 24 26 27 28 28 29 30
28 26 27 28 27 27 25 22 24 27 25 23 24 22 19 16 15 14 14 15 16 15 15 15 14 14 14 13 13 12 12 11 11 10 10 10 9 9 8 8 8 8 8 7 7 6 6 6 5 4 3 3 3 4 5 4 4 5 5 5 6 7 7 9 10 12 14 16 16 17 16 17 18 19 20 21 22 23 25 27 27 26 27 29 31
30 29 27 28 28 27 26 22 23 26 25 24 24 21 18 16 15 14 15 15 15 15 15 15 14 14 14 13 13 12 12 11 10 10 10 10 10 9 8 8 8 8 7 7 7 6 6 5 4 3 2 2 3 4 5 5 4 5 6 6 6 7 8 9 10 12 14 16 17 17 17 17 18 19 20 20 22 23 25 27 27 27 29 30 31
31 28 26 27 29 27 24 24 23 24 26 26 23 21 19 16 15 14 15 15 15 15 14 14 15 14 14 14 13 13 12 11 11 11 11 11 10 9 9 8 8 7 7 7 7 6 5 4 3 2 2 2 3 4 5 6 5 5 6 7 7 8 9 10 11 12 14 16 17 17 17 18 18 19 20 20 22 24 25 26 27 29 30 30 30
30 29 27 27 29 26 22 23 25 26 28 26 23 21 19 16 15 15 15 16 15 15 15 15 15 14 14 14 14 13 12 12 12 12 12 11 10 10 9 9 8 7 7 7 6 5 5 4 3 2 2 2 3 4 6 6 6 5 7 8 8 9 10 11 12 13 14 16 17 17 17 17 18 19 20 21 24 25 24 24 27 30 31 30 28
30 29 28 27 28 27 23 23 27 29 28 25 22 21 19 16 15 15 15 16 15 15 15 14 14 14 14 14 14 13 12 12 12 12 12 12 11 11 10 9 9 8 7 7 6 5 4 4 3 2 2 2 3 5 6 7 6 6 7 8 9 10 11 12 12 13 14 15 16 17 17 17 18 18 19 22 25 25 25 26 27 28 29 30 30
30 29 30 28 27 26 23 24 30 31 28 25 23 21 19 16 15 15 16 15 15 15 14 13 13 13 13 13 13 12 12 12 12 12 12 12 11 11 11 10 9 8 7 7 6 5 5 4 3 2 3 3 3 5 6 7 6 6 7 8 10 11 12 12 13 13 14 14 15 16 17 17 17 18 20 22 23 23 25 28 29 28 27 29 30
27 29 31 29 26 25 24 26 32 31 27 25 24 21 19 16 15 16 16 15 15 15 14 13 12 12 12 12 12 12 12 12 12 12 12 12 12 11 11 11 10 9 8 7 6 5 5 4 3 3 2 2 3 4 6 7 7 7 7 9 10 10 11 12 12 13 13 14 15 15 16 17 17 18 21 22 21 22 25 27 29 31 30 28 29
28 29 29 27 25 25 25 27 29 27 25 24 23 21 19 16 16 17 16 16 15 14 14 13 12 11 11 10 10 10 10 10 12 13 13 12 12 11 11 10 10 9 8 8 7 6 6 5 4 3 2 3 4 5 7 8 8 8 7 8 9 10 10 11 12 13 13 14 15 15 16 17 18 20 21 21 22 24 27 27 28 30 31 30 28
29 29 27 26 26 26 27 27 27 25 24 24 23 22 20 17 17 18 17 17 16 15 16 15 12 12 13 12 11 11 9 10 13 15 14 13 12 11 11 10 9 9 9 8 8 7 6 6 5 1 2 3 3 5 7 8 9 9 8 8 8 8 9 11 12 12 14 14 15 16 16 17 18 20 20 21 22 24 27 27 28 29 30 29 27
26 27 25 25 27 27 27 28 26 25 25 24 23 23 21 19 18 18 18 18 17 18 19 19 16 16 16 15 16 16 13 13 15 17 16 15 13 10 10 10 9 8 8 8 8 7 7 7 5 2 2 3 5 6 8 9 10 11 10 9 8 7 8 10 11 12 13 14 15 16 16 17 19 20 20 21 23 24 26 27 27 29 29 26 25
26 25 25 26 27 27 26 26 26 25 25 24 24 26 24 21 19 19 20 20 19 20 21 21 19 18 15 15 16 15 13 13 16 18 17 16 14 10 9 9 8 8 8 8 8 7 7 6 4 3 2 1 3 5 7 9 10 12 12 11 10 9 8 8 9 10 12 14 15 16 16 18 20 20 20 22 24 25 26 27 27 28 28 27 26
26 26 26 27 27 27 26 25 26 27 26 25 27 28 26 21 19 20 20 19 18 18 18 18 18 16 15 15 15 14 13 14 16 19 20 18 15 10 8 8 8 7 8 7 6 6 7 6 5 5 4 2 2 3 6 8 10 12 12 12 11 11 10 10 9 10 12 14 15 16 17 18 20 20 22 23 25 26 26 27 28 28 28 29 30
26 26 26 26 26 27 27 26 27 27 26 26 29 27 23 21 20 20 20 19 18 17 16 16 16 15 15 15 15 14 14 14 16 19 21 20 17 11 5 6 8 7 7 6 5 5 6 6 5 5 3 2 1 4 6 7 9 10 10 10 10 10 11 10 8 10 14 14 15 17 18 18 20 22 24 25 25 26 27 29 31 30 30 31 32
26 26 26 26 26 26 26 26 26 26 25 27 28 24 21 21 21 20 19 19 18 16 15 15 15 15 15 15 15 14 14 15 16 19 21 20 20 13 4 4 8 7 6 6 6 6 6 5 5 4 2 3 3 5 7 8 9 9 9 9 9 10 10 8 9 13 16 15 15 18 19 20 22 25 28 28 27 28 29 30 31 31 30 31 31
26 25 26 26 25 25 25 26 26 25 26 27 26 23 21 21 20 20 19 18 16 15 15 16 16 16 16 15 15 14 14 15 17 20 19 19 20 15 5 4 7 6 6 7 7 7 7 6 6 4 3 4 5 6 6 8 8 8 10 10 10 10 9 9 13 18 19 19 19 20 21 23 26 27 29 30 30 31 32 29 28 28 28 29 28
27 26 26 25 24 24 25 26 26 25 26 26 25 23 22 21 20 20 19 17 17 16 16 16 16 16 16 16 15 13 13 17 20 20 19 18 18 14 7 6 7 7 8 8 8 8 8 7 6 4 3 4 5 5 6 8 8 9 10 11 11 11 10 12 16 19 20 21 21 22 22 24 25 26 27 28 29 31 30 27 26 28 27 24 23
25 25 24 23 23 24 24 24 25 25 26 26 24 22 22 21 20 19 18 17 17 16 16 16 15 16 16 16 15 13 13 18 21 20 19 18 17 13 9 8 8 8 8 9 8 8 9 10 9 5 2 4 4 3 5 8 9 9 11 11 11 11 12 14 18 19 19 20 20 20 21 22 23 23 23 25 27 28 26 25 26 28 26 24 24
23 23 22 22 23 23 23 23 23 24 24 24 24 23 23 21 20 19 17 16 16 15 15 14 14 15 15 14 14 13 13 19 22 20 20 20 18 14 10 8 9 9 8 9 9 8 8 11 12 9 6 5 4 2 4 7 8 9 11 11 11 11 14 17 19 19 20 20 19 20 20 20 20 20 21 23 25 26 25 25 26 26 25 27 28
22 22 22 22 22 22 23 24 24 24 24 24 24 23 22 21 21 20 17 15 15 15 14 13 13 13 13 13 14 12 13 19 23 21 20 20 19 16 11 8 8 9 9 9 10 9 8 9 10 9 7 5 3 2 4 5 8 10 10 10 10 13 16 18 19 19 20 19 19 19 19 19 19 19 20 22 23 25 26 26 26 26 26 28 28
23 22 21 22 22 24 26 27 27 27 27 27 26 24 22 22 21 20 17 16 15 15 14 14 13 13 13 13 13 12 12 18 22 21 20 19 19 18 14 8 6 9 10 9 10 10 9 9 11 9 6 5 4 3 4 5 8 10 10 10 12 13 15 17 18 18 18 17 18 18 18 19 19 19 20 22 23 25 28 28 27 27 27 27 27
24 21 20 20 21 25 29 29 30 31 31 30 29 27 26 25 22 19 17 16 16 16 15 14 14 14 13 12 13 12 11 15 19 21 21 19 18 19 18 11 6 8 10 10 10 10 8 9 11 10 7 6 6 5 5 6 8 10 10 11 12 12 12 15 17 16 15 16 17 17 18 18 19 20 21 22 23 25 27 28 28 27 27 26 26
23 20 19 20 19 22 26 29 31 32 33 33 32 31 28 24 20 18 17 17 17 16 16 15 14 14 13 12 13 13 12 14 17 19 20 20 19 20 19 14 9 9 9 9 10 9 7 7 8 9 8 8 7 7 7 7 9 10 10 11 11 10 12 15 15 14 15 15 15 16 18 18 19 20 21 23 24 25 26 27 28 29 28 28 27
22 20 19 20 20 21 25 30 32 32 32 32 32 29 25 20 18 18 18 17 16 16 16 16 15 15 15 14 14 14 13 14 16 18 19 19 19 22 21 16 14 13 9 6 7 7 7 8 8 8 8 9 9 8 8 9 9 10 10 10 9 10 14 14 12 12 14 14 15 16 17 18 19 20 22 23 24 24 25 26 27 29 29 29 29
19 18 17 19 22 24 27 30 32 31 32 32 29 25 22 20 19 20 19 18 17 17 16 16 15 15 15 15 15 15 14 14 15 17 19 17 18 23 23 19 17 18 12 6 5 6 7 9 9 9 9 10 9 9 10 11 11 12 11 8 8 12 13 10 10 12 12 13 15 16 16 18 19 20 21 23 24 23 24 26 27 28 28 30 30
19 19 18 19 24 27 29 30 30 30 30 28 25 23 22 21 20 20 19 18 18 17 17 17 16 15 15 15 15 15 14 14 14 15 18 17 18 23 25 20 19 21 18 10 6 7 9 10 11 10 10 9 9 11 12 12 13 15 15 12 12 13 10 8 11 12 11 13 15 15 16 17 19 20 21 22 23 23 24 26 27 27 28 30 31
23 22 20 21 24 26 28 29 28 27 25 23 21 21 20 20 20 21 20 19 18 18 18 17 17 16 15 15 15 15 15 15 14 15 17 18 18 22 23 21 19 21 19 12 8 8 9 10 11 11 10 10 11 12 13 13 14 17 17 15 14 12 9 9 10 10 10 12 14 14 16 17 18 19 21 22 23 23 23 25 26 27 28 29 29
24 22 21 22 23 24 27 29 26 24 22 21 20 20 20 20 20 20 20 20 19 18 18 18 17 17 17 16 16 16 16 16 16 16 18 18 17 18 20 19 18 18 17 12 9 9 9 9 10 11 12 12 13 14 16 17 18 17 14 10 10 10 9 9 9 9 9 12 13 14 15 17 17 19 20 21 22 23 23 25 27 27 28 28 27
23 21 20 21 21 21 25 27 24 21 21 20 19 19 20 20 20 19 19 19 19 19 19 19 19 18 17 17 17 17 16 17 17 18 19 19 18 17 17 18 16 16 16 14 11 9 8 9 10 11 12 13 13 14 14 13 12 11 9 8 9 10 8 8 9 9 9 11 13 13 15 16 17 18 20 21 22 23 23 26 28 27 26 27 27
24 23 22 21 20 21 24 24 21 20 21 20 18 17 18 20 20 18 17 19 20 20 19 18 19 18 17 16 17 17 16 17 18 19 20 20 20 17 16 18 17 15 15 15 12 9 8 9 10 11 12 12 12 12 11 9 9 9 9 9 10 9 8 9 10 9 9 11 12 13 15 16 17 18 19 20 22 22 23 25 27 27 25 26 27
21 23 22 22 23 24 24 23 21 20 20 20 18 17 18 19 20 19 18 20 22 22 19 18 19 19 17 14 15 17 15 16 20 22 19 19 21 18 15 17 19 16 14 14 12 10 9 9 10 11 11 12 12 12 10 10 10 10 10 10 10 9 9 10 9 9 11 12 12 12 14 15 16 17 18 19 20 21 22 23 25 25 25 25 26
18 19 20 22 25 24 23 23 22 20 20 20 19 18 18 18 18 18 19 21 23 23 21 19 19 21 19 13 12 15 15 15 19 22 19 18 20 19 15 16 17 16 14 13 11 10 11 11 12 12 12 12 12 12 11 11 11 11 11 11 10 10 10 10 9 10 11 11 12 13 14 14 15 17 17 17 18 19 20 21 22 24 24 24 25
19 19 19 22 24 22 20 21 21 19 20 21 20 20 20 19 18 17 17 19 22 23 23 21 21 23 22 16 11 14 17 16 15 18 19 18 19 19 17 16 16 16 15 14 12 11 12 12 12 12 13 13 13 12 11 12 11 11 11 11 10 10 10 9 9 10 10 10 12 13 13 14 15 16 16 17 18 18 19 20 21 22 22 22 24
19 20 22 24 24 21 20 20 20 19 20 21 20 20 20 19 19 18 17 18 20 21 22 23 23 23 24 21 15 13 17 18 16 16 18 18 17 17 18 18 19 19 18 16 13 12 13 13 13 13 13 13 13 12 11 11 11 11 11 11 11 11 10 9 9 10 9 10 11 12 13 14 15 15 16 17 18 18 18 18 19 21 21 21 22
19 21 25 26 24 22 21 21 20 19 19 20 20 19 19 18 18 18 18 18 19 19 20 23 25 25 26 26 21 16 16 18 18 17 17 17 16 14 15 17 18 19 21 20 17 15 14 14 13 14 14 13 13 12 11 11 11 11 11 11 11 11 10 10 10 9 9 10 12 13 14 14 14 14 15 16 17 17 17 17 18 19 19 20 21
20 23 26 26 24 22 20 19 19 18 19 18 18 17 17 17 16 17 17 18 19 19 19 20 23 26 27 28 26 22 18 18 18 17 16 16 15 14 14 15 15 16 18 19 19 17 16 16 15 14 14 14 13 12 12 12 11 11 11 11 11 11 10 10 9 8 9 10 12 13 14 13 13 14 15 15 16 16 16 17 18 18 18 20 22
21 25 26 24 22 20 18 17 18 18 19 19 17 16 16 17 17 18 18 18 18 20 19 19 19 23 27 29 29 27 23 21 19 18 17 16 16 15 14 14 14 15 15 16 17 17 17 17 17 16 15 14 13 13 13 12 12 12 11 11 11 11 11 10 9 9 11 13 14 14 13 13 13 13 14 15 16 16 16 16 17 18 19 21 21
21 26 27 24 21 19 17 17 19 20 19 19 17 17 17 18 19 20 19 18 18 19 20 20 19 21 24 27 29 29 27 25 23 21 20 19 18 19 17 14 14 16 16 16 17 17 16 17 17 17 16 15 14 13 13 12 12 12 11 11 12 11 11 11 11 12 14 14 13 13 12 13 13 13 14 15 15 16 16 15 15 17 18 19 19
18 24 28 27 23 20 17 17 19 20 20 19 18 19 19 19 19 20 20 19 19 19 19 19 20 20 20 22 28 30 28 24 23 23 24 24 23 21 19 16 16 17 17 16 16 16 16 16 16 16 16 15 14 13 13 12 12 12 11 11 11 11 11 11 11 12 12 12 12 12 12 13 14 13 14 15 15 16 17 16 15 16 17 18 18
15 21 26 26 22 19 17 18 19 19 19 18 19 20 20 20 20 20 19 19 18 18 18 18 19 19 18 21 28 31 27 22 20 21 23 24 24 21 19 18 18 19 19 17 16 16 16 16 16 16 15 14 14 13 13 13 13 12 12 11 11 11 12 12 12 12 12 12 13 13 13 14 14 14 14 15 16 17 17 16 15 16 16 17 18
15 21 27 26 22 19 18 18 19 19 18 18 18 19 19 19 19 18 18 18 16 16 17 17 17 18 19 22 28 31 27 22 20 21 21 22 23 22 20 20 20 20 19 17 16 16 16 16 15 15 14 14 14 14 13 13 12 12 12 11 11 12 12 12 12 13 13 13 13 14 14 14 14 14 15 17 17 17 16 16 16 17 16 16 17
14 21 26 25 22 19 18 17 17 18 18 17 17 18 19 19 18 17 17 17 17 16 17 18 17 17 19 24 28 30 29 25 23 22 22 21 22 23 22 22 22 21 20 18 17 17 17 17 16 15 15 14 14 13 13 13 12 12 12 12 12 12 13 13 13 13 13 14 14 15 15 14 14 15 16 17 17 17 17 17 17 16 16 15 16
15 19 23 23 20 18 17 17 17 17 17 17 17 17 18 18 18 17 16 17 17 17 16 17 16 14 16 22 27 29 28 25 23 22 22 21 21 22 22 23 22 21 20 18 17 17 18 17 17 16 15 15 14 14 13 13 13 13 13 13 13 13 13 14 14 14 14 14 14 15 15 14 14 15 16 16 16 17 17 17 17 16 16 16 16
15 18 20 21 20 18 16 16 17 16 17 17 16 16 17 17 17 17 17 17 17 16 15 15 15 14 15 22 27 28 26 23 22 21 21 21 21 21 21 21 20 20 19 18 18 18 18 18 17 16 16 16 15 14 14 14 13 13 13 13 14 14 14 15 15 15 15 15 15 15 15 15 15 16 16 17 17 18 18 18 18 17 17 16 16
14 16 19 19 19 17 16 16 16 15 16 16 16 16 16 16 15 16 17 16 15 15 15 15 16 15 16 20 24 25 23 22 22 21 21 21 21 21 19 17 17 17 17 18 18 19 19 19 19 18 18 18 16 15 14 14 14 14 14 15 15 15 15 16 16 15 15 15 15 15 15 15 16 17 18 18 18 18 19 19 19 18 17 16 15
14 15 18 18 18 18 17 16 17 17 16 17 16 15 15 16 16 16 16 16 16 16 16 16 16 17 17 18 20 22 22 21 21 20 18 17 17 17 16 15 15 15 16 17 17 19 20 20 21 20 20 18 17 16 16 16 16 16 16 16 16 16 16 16 15 15 15 15 14 14 15 16 17 17 18 18 17 17 17 18 17 17 17 17 17
13 13 16 17 17 17 17 17 17 18 17 16 17 16 16 17 17 16 16 16 15 15 15 15 16 16 16 16 18 19 20 21 20 19 18 17 16 17 16 15 15 15 16 17 18 19 20 22 22 22 20 19 18 17 17 17 16 16 16 16 16 16 16 15 14 14 14 13 12 13 15 17 18 19 18 16 15 15 16 16 17 17 18 18 17
12 13 14 15 15 16 16 16 17 17 17 16 16 15 15 15 15 16 16 15 15 15 15 15 14 15 16 16 16 18 21 24 24 22 20 19 19 18 17 17 16 16 17 17 19 20 21 21 22 21 21 22 23 22 20 18 18 17 17 16 16 16 16 15 14 14 15 15 14 14 15 17 19 20 19 17 17 17 18 18 18 18 17 17 17
11 11 12 13 14 15 15 14 14 14 13 12 12 13 13 13 13 13 14 14 14 15 16 15 15 15 16 16 16 16 20 24 25 23 20 20 19 17 17 18 18 18 19 19 20 21 22 22 21 20 19 21 23 23 22 20 19 19 18 17 17 18 18 18 18 19 20 21 21 21 20 19 20 20 20 19 19 20 21 21 21 19 17 17 17
9 8 9 9 10 11 12 12 12 13 12 12 11 13 15 15 13 12 12 14 15 16 17 17 17 16 15 16 16 16 17 20 23 23 22 20 18 17 17 18 19 20 21 22 22 23 22 21 21 21 20 20 20 19 19 18 18 18 18 18 18 19 19 20 21 23 24 24 25 24 22 20 19 19 19 19 19 19 20 20 20 18 16 16 17
9 10 11 11 10 11 12 12 13 14 15 15 14 13 15 16 15 15 15 15 16 16 16 16 15 15 15 15 16 17 17 18 20 21 21 20 19 19 19 19 20 21 22 22 22 22 21 20 20 20 20 21 21 20 19 19 18 18 18 19 20 21 22 23 24 24 24 24 24 23 21 20 20 20 20 21 20 19 17 17 18 17 16 16 17
Wind_Direction
173 171 174 179 180 179 177 177 175 170 173 177 171 164 161 156 156 159 160 163 163 162 162 159 157 155 152 150 147 144 143 142 140 138 136 134 134 132 131 128 121 116 113 108 104 103 97 90 82 69 54 48 39 30 27 14 8 8 358 351 348 344 334 324 314 310 313 317 316 315 316 317 316 317 318 318 319 320 319 318 317 317 316 315 315
174 174 176 179 178 177 175 173 177 178 175 171 169 164 158 157 159 160 162 165 165 165 162 159 158 155 153 152 150 148 147 145 144 145 144 141 138 136 134 131 124 120 118 114 108 104 100 94 85 72 55 42 34 31 22 7 6 6 356 345 337 334 329 320 313 308 309 314 315 314 316 318 315 316 319 319 320 321 321 319 319 317 316 316 315
178 176 175 176 174 173 171 168 173 178 175 168 166 161 156 159 162 162 164 165 165 165 162 160 159 157 156 154 151 151 149 148 149 150 149 145 142 141 138 133 128 125 123 118 115 113 107 101 93 76 54 42 32 30 20 4 0 360 350 341 330 324 324 316 307 305 306 309 313 315 318 319 316 318 321 320 320 322 321 319 319 318 317 316 315
177 172 170 172 171 168 169 169 168 170 173 169 163 158 157 160 164 165 165 164 164 164 160 161 161 159 158 157 155 155 152 152 154 153 151 150 147 146 143 138 133 130 126 122 123 122 116 110 104 81 57 40 26 27 20 5 357 354 346 338 329 324 321 313 305 305 305 306 311 314 317 318 319 321 322 322 323 323 321 319 319 318 317 317 316
175 172 170 170 170 168 167 171 173 171 171 166 159 157 158 161 165 165 164 164 163 160 161 164 164 162 162 160 159 158 156 155 156 154 154 153 152 150 147 143 138 131 127 127 126 127 124 118 107 79 53 38 27 21 11 1 352 348 344 336 330 326 320 314 310 308 306 307 310 314 317 319 322 323 325 327 326 323 321 321 319 318 318 318 317
174 172 168 165 168 169 166 171 177 174 168 161 156 157 159 163 167 164 163 164 160 159 164 166 165 165 165 164 162 160 158 157 157 157 156 155 155 153 149 146 141 136 134 134 130 129 128 124 112 78 48 36 32 20 6 360 352 345 341 334 330 327 320 316 314 312 311 311 312 316 320 324 324 324 328 330 327 324 324 323 319 318 319 319 319
174 169 166 163 166 168 165 170 176 174 167 160 156 158 163 166 167 164 163 162 159 161 164 164 166 168 166 165 164 161 160 159 159 159 159 159 158 156 154 150 147 145 144 142 138 135 132 130 125 90 57 41 33 20 8 359 349 344 343 336 330 328 324 321 319 317 317 316 317 320 323 326 326 327 329 329 325 325 327 325 321 320 321 321 320
170 166 165 166 167 167 165 169 174 172 167 162 159 161 165 167 166 162 160 161 161 161 161 160 162 166 165 166 165 164 165 163 162 162 162 162 161 159 158 156 155 154 154 151 146 146 148 143 129 106 78 72 66 44 25 13 358 345 341 337 332 330 327 324 323 322 323 322 322 325 326 326 328 329 329 329 328 328 328 324 320 319 322 322 320
169 167 167 166 167 166 163 164 167 166 163 161 161 164 165 166 165 160 159 159 157 156 156 155 160 164 164 164 165 166 170 169 166 166 166 165 164 164 163 162 161 160 162 164 164 167 164 152 143 136 112 94 76 49 29 18 8 352 340 334 334 334 331 328 329 329 328 326 326 328 329 327 329 331 330 330 331 328 325 323 319 318 320 320 319
167 168 168 164 162 162 159 159 161 162 160 159 163 168 168 165 162 159 157 154 152 153 152 152 160 164 160 163 167 168 179 187 178 173 172 169 166 167 168 168 167 168 171 172 177 185 184 174 181 192 52 37 3 3 4 358 355 352 344 333 330 335 335 334 335 335 331 328 328 330 328 326 328 329 327 328 329 326 324 324 320 320 322 320 319
165 166 164 158 156 156 156 159 162 161 159 159 163 167 168 167 163 158 156 155 156 160 160 160 168 170 166 172 173 171 183 198 190 181 175 169 166 169 173 173 174 176 180 183 185 193 194 186 200 257 2 345 311 320 334 334 334 336 335 328 318 317 328 331 332 335 333 327 325 327 326 324 325 326 326 328 329 326 324 322 321 322 323 321 319
167 166 163 158 155 153 157 162 162 161 161 159 160 162 162 163 161 156 156 157 160 165 168 169 174 176 174 175 175 175 187 199 196 188 181 173 168 168 172 177 179 182 187 195 195 191 189 190 203 223 238 302 308 307 318 322 321 320 322 321 308 296 305 314 315 325 330 324 322 323 323 323 322 323 327 328 325 323 321 320 320 320 320 318 316
170 166 162 160 158 158 163 164 162 164 165 163 164 166 163 159 158 157 157 157 158 163 168 170 173 176 175 176 179 182 190 202 202 194 186 181 174 168 170 177 183 192 196 199 199 185 183 196 203 206 229 282 337 325 320 320 317 314 315 314 304 291 295 302 305 321 328 320 317 318 320 321 320 320 323 323 321 320 320 319 319 318 316 315 314
171 168 164 164 165 166 166 163 161 162 164 166 169 168 163 159 161 161 161 164 165 165 168 170 172 175 177 182 186 185 190 203 206 196 190 187 180 174 175 185 191 200 200 194 196 189 191 207 208 201 216 235 289 333 332 324 317 313 311 311 308 301 298 294 299 322 325 315 311 313 314 315 315 313 316 318 315 315 316 316 315 314 313 312 313
169 170 170 170 169 168 163 159 158 158 161 166 168 164 161 161 163 162 164 169 173 175 177 176 178 182 185 188 188 186 193 203 201 193 190 189 185 184 199 215 200 198 195 192 198 201 201 208 209 207 210 218 258 309 334 335 324 314 312 315 317 314 304 289 293 311 316 311 307 308 308 311 313 314 317 318 315 314 314 310 309 312 313 314 315
170 171 172 171 167 164 160 156 156 156 159 164 164 161 161 162 162 162 162 166 173 180 183 182 184 188 191 192 188 185 192 199 196 189 186 186 188 191 212 224 199 197 202 202 203 203 201 201 208 218 213 220 264 303 341 350 335 318 318 321 319 317 314 309 312 316 317 315 314 314 316 318 320 321 324 324 321 320 317 310 311 318 318 318 319
174 173 172 168 163 161 159 156 156 157 159 162 163 163 161 162 164 164 163 167 175 180 183 185 188 190 191 192 189 184 187 194 193 188 185 185 187 193 211 215 204 207 207 204 205 201 198 201 206 211 208 223 262 305 349 357 342 323 322 325 321 320 324 324 322 319 318 318 319 321 321 321 321 323 325 326 324 323 319 314 319 325 322 320 322
169 167 166 161 159 160 160 158 157 159 161 162 163 163 162 162 164 166 167 172 177 180 183 185 187 188 189 190 189 184 185 190 190 188 189 189 189 194 208 209 205 208 203 201 205 201 202 210 208 199 209 234 253 307 356 358 343 326 324 325 321 324 330 328 322 320 321 322 322 322 321 320 321 324 324 324 325 326 324 320 323 325 322 323 324
163 161 159 157 159 160 161 160 160 161 163 163 161 161 161 161 163 167 171 173 174 177 181 183 181 182 185 187 184 180 182 187 189 191 194 195 194 196 208 213 206 204 201 200 204 202 204 215 212 200 202 222 240 312 350 350 341 327 323 322 323 328 329 325 323 320 318 319 322 324 325 325 326 325 325 326 328 330 329 325 325 325 323 323 324
168 165 161 159 161 162 163 164 162 161 162 163 161 159 158 160 163 165 166 169 170 170 173 176 177 177 180 183 180 176 179 185 190 195 198 200 200 198 209 224 211 200 201 202 206 205 199 204 209 203 201 212 228 296 326 331 335 329 320 315 318 323 323 323 326 320 311 314 324 328 329 331 331 329 330 331 331 332 331 328 326 326 325 323 323
168 163 158 158 160 163 165 166 164 163 163 163 161 158 157 157 158 158 162 166 164 163 167 172 173 174 176 178 177 176 177 184 192 199 202 206 206 199 206 230 225 203 205 205 206 208 205 206 209 208 214 226 232 272 300 307 319 319 311 307 310 315 320 320 318 315 314 322 331 334 334 336 336 335 335 334 334 333 330 328 327 327 326 324 323
166 159 156 158 161 164 167 168 167 166 166 164 160 159 159 158 156 157 163 162 154 158 171 176 172 170 171 172 176 178 176 183 194 201 205 210 210 200 203 220 216 195 204 209 207 208 208 204 200 204 225 244 241 258 282 294 304 306 305 308 309 316 322 314 307 313 327 334 336 337 340 340 340 340 339 337 335 332 329 328 329 328 327 325 323
166 162 167 171 170 168 170 173 172 170 170 168 165 163 163 161 160 162 161 154 153 164 177 177 169 167 168 171 178 180 177 186 199 204 207 212 210 202 205 211 199 190 203 211 209 209 202 191 194 210 234 247 244 255 272 280 288 298 306 310 312 314 308 301 304 322 334 335 336 341 343 343 343 342 341 338 335 333 332 330 330 330 328 327 326
165 166 170 173 172 172 172 173 174 172 172 171 168 165 161 158 159 162 161 162 168 173 176 173 169 170 173 177 182 181 177 186 202 207 208 212 209 204 206 208 200 196 202 203 201 201 187 181 193 217 237 243 242 250 261 265 275 291 296 298 309 306 294 295 315 332 332 333 339 343 342 343 344 342 340 339 337 337 337 334 332 332 331 329 329
163 161 157 158 164 169 169 170 173 174 173 172 168 162 160 160 161 165 170 175 177 176 177 177 175 177 179 182 183 181 175 178 195 207 210 212 210 205 206 207 201 198 200 204 199 190 183 191 209 229 239 241 243 252 260 264 274 285 283 281 298 297 289 305 333 331 327 335 341 341 341 342 342 340 339 339 340 342 342 338 336 336 334 333 332
164 163 159 158 164 168 166 168 172 174 173 171 167 163 165 166 167 171 177 180 179 179 181 181 181 182 183 182 180 179 175 173 183 199 207 209 207 203 204 206 204 201 206 216 218 208 210 219 230 238 240 241 247 255 261 263 267 271 269 265 271 278 287 322 333 322 324 337 339 338 340 339 338 338 339 340 343 345 344 342 341 340 338 337 335
167 167 162 157 160 164 165 166 169 170 168 167 168 171 175 173 173 178 182 183 183 184 182 180 183 184 183 183 181 178 178 177 178 187 196 199 199 201 204 209 209 206 211 222 233 231 233 235 237 239 242 247 251 253 255 256 257 261 263 259 258 265 281 306 309 306 322 336 335 334 336 336 337 338 339 342 344 344 344 345 344 342 342 340 337
163 159 155 154 157 162 165 168 168 167 169 171 174 179 181 179 179 184 187 185 183 182 180 181 184 184 182 184 183 179 181 184 181 181 185 187 188 194 202 207 208 207 212 221 228 229 232 240 247 249 249 251 255 255 254 253 252 257 264 265 265 273 282 289 290 295 319 332 329 328 333 335 336 338 339 341 342 342 344 348 348 344 344 344 342
160 157 156 156 158 159 163 167 167 166 172 177 180 183 184 183 184 187 189 189 185 183 183 183 183 184 184 185 185 183 186 189 188 186 186 183 180 186 195 199 200 205 209 211 213 215 220 230 241 247 247 248 253 257 257 254 253 258 269 276 276 278 286 296 296 301 320 327 322 324 332 333 333 336 338 339 339 340 344 350 352 349 346 346 345
164 168 167 162 161 160 161 164 165 166 172 175 179 184 185 186 189 190 188 189 188 186 186 185 184 186 188 190 190 190 190 191 189 189 191 186 180 185 194 195 195 202 207 206 208 215 224 234 243 249 251 252 255 259 261 264 268 272 274 275 273 274 284 293 294 300 314 317 315 322 329 327 328 333 335 334 336 339 344 349 352 351 349 348 346
161 170 173 169 165 161 159 162 165 167 172 174 176 178 179 183 191 193 190 189 189 188 188 189 188 188 189 191 191 192 197 198 192 192 195 190 184 187 192 192 194 201 204 203 209 221 233 244 251 253 254 255 256 257 258 261 264 267 269 270 271 273 278 282 286 296 305 308 312 319 322 323 326 330 330 329 331 338 343 345 348 351 350 348 346
153 159 165 166 164 161 158 160 163 165 168 172 173 172 172 175 182 187 187 189 191 191 192 194 192 189 190 193 187 186 193 192 186 190 196 192 189 193 197 197 202 209 211 210 215 225 232 238 244 248 250 253 254 253 255 259 260 262 265 267 268 269 271 275 284 294 298 304 313 317 319 324 327 326 326 328 330 336 341 342 345 349 348 346 345
156 154 157 159 162 164 162 161 164 166 168 170 171 171 172 174 177 181 183 187 191 195 198 200 197 192 194 199 192 185 189 186 179 187 195 195 195 201 207 211 214 219 220 218 220 229 235 238 242 245 246 249 250 249 249 253 257 262 266 268 270 271 271 274 282 289 295 304 312 316 319 325 326 325 327 329 331 334 337 339 343 346 345 343 342
159 160 162 161 162 165 167 167 169 172 174 175 176 176 179 181 182 182 181 181 186 193 199 202 202 199 200 205 205 194 191 192 188 185 187 191 197 204 211 217 222 224 225 224 224 230 236 239 243 247 248 248 249 249 250 253 258 265 268 269 272 273 273 276 282 288 298 308 312 316 320 322 323 324 325 326 329 330 332 335 340 342 341 341 339
159 165 169 167 163 163 168 173 176 176 177 178 179 180 183 185 186 185 183 182 186 192 196 200 203 204 203 207 210 204 193 193 194 190 186 192 201 208 211 215 219 222 225 226 226 231 236 238 240 245 248 249 249 250 251 254 257 261 265 268 271 272 272 275 280 286 300 310 312 315 318 316 315 318 321 323 328 331 332 334 336 336 337 336 333
164 169 170 169 164 161 164 172 175 174 174 173 173 175 179 182 185 188 188 187 190 194 196 198 202 206 206 208 210 209 202 197 197 197 198 203 211 215 211 209 212 217 220 222 225 230 235 238 240 243 245 247 249 250 251 254 256 259 263 267 271 274 275 274 277 288 302 307 305 304 306 307 309 317 323 326 330 332 332 331 330 329 328 327 326
166 169 169 168 166 162 163 169 174 174 173 172 170 171 176 185 193 198 199 198 196 197 198 195 195 200 205 208 210 210 209 208 208 209 211 215 221 224 219 215 217 220 221 223 225 227 231 233 236 241 245 247 249 251 254 257 259 260 263 266 266 268 270 272 280 290 290 288 289 290 295 304 312 319 324 325 327 330 330 329 327 324 322 323 325
168 173 172 169 166 163 163 168 174 175 174 175 178 181 186 195 201 206 208 206 201 199 200 196 191 193 199 204 209 211 211 212 216 219 220 222 226 228 226 224 226 228 229 229 227 227 229 230 230 235 241 244 246 250 252 255 259 262 265 266 265 265 266 269 275 278 276 279 286 292 300 311 317 320 322 321 322 327 329 329 324 319 319 323 328
170 177 179 176 172 170 168 167 170 173 175 179 185 191 195 199 203 206 209 209 205 204 203 201 199 199 195 194 200 205 207 207 211 215 218 222 226 228 228 228 231 233 234 235 232 228 229 231 231 234 239 241 246 250 253 255 259 262 263 265 266 267 267 267 271 274 277 284 293 298 304 310 313 316 317 318 321 325 326 323 319 316 320 324 325
166 174 178 177 173 171 171 169 169 173 176 181 189 195 199 203 206 207 209 209 205 204 204 202 203 203 193 187 193 198 198 197 201 205 211 219 224 227 228 227 230 233 235 237 236 234 233 233 234 236 240 243 247 250 252 255 258 260 262 264 264 265 267 268 269 274 279 283 288 293 298 303 308 313 316 317 319 321 318 316 317 320 322 323 322
163 168 175 175 171 168 170 172 175 179 182 186 194 198 200 204 207 206 207 207 202 200 202 204 206 206 198 192 195 197 195 194 198 201 206 214 221 224 225 226 229 233 235 235 235 236 237 238 238 239 241 245 247 249 251 255 258 260 261 261 261 264 268 269 269 272 276 280 284 288 292 294 299 306 309 309 310 311 311 315 320 322 321 320 320
162 165 170 172 170 170 172 174 177 182 184 189 197 201 203 206 207 204 203 205 202 200 203 206 210 209 199 195 198 199 196 194 197 199 203 211 217 220 222 224 226 231 235 235 234 234 236 239 242 243 245 247 249 252 254 257 261 263 263 262 262 263 265 269 271 274 278 281 282 284 286 288 291 295 299 301 304 307 311 314 315 315 314 314 317
161 160 166 170 172 174 178 179 181 186 189 192 198 202 203 207 209 206 204 206 206 205 205 204 203 200 193 194 200 201 196 194 198 202 205 210 215 217 219 222 224 229 232 232 232 233 234 238 241 243 246 248 249 252 255 255 256 257 257 258 261 262 264 269 272 275 278 281 284 287 289 292 294 294 297 300 302 306 309 309 308 309 310 310 314
158 156 163 170 173 175 180 182 184 188 191 194 198 201 202 205 208 207 206 208 207 202 198 196 197 196 190 191 196 199 198 200 204 205 207 213 216 217 218 219 222 226 228 228 229 231 235 239 242 244 246 248 249 251 253 254 254 254 254 257 259 261 264 267 270 273 276 279 283 287 288 288 291 295 299 302 304 306 309 310 310 312 311 308 308
163 161 164 169 172 175 179 183 185 189 191 194 198 202 202 204 207 206 205 205 202 197 196 200 204 202 194 189 190 195 201 204 205 206 209 213 216 218 219 217 218 221 223 224 226 229 234 240 244 245 245 246 248 251 255 257 258 259 260 262 263 263 264 265 267 270 272 272 276 281 284 286 290 294 297 300 302 303 305 307 306 306 306 304 302
172 167 167 170 175 179 182 185 188 189 190 191 195 197 198 201 207 208 206 205 203 202 204 208 207 205 202 197 195 197 202 203 203 204 207 209 212 217 220 220 221 222 223 224 227 231 236 241 244 245 244 243 244 250 256 259 260 261 261 262 263 264 265 265 265 266 268 267 268 271 276 281 286 288 290 292 293 293 294 295 295 295 294 293 294
174 169 171 174 177 181 185 187 187 188 189 191 195 199 202 205 209 209 207 208 209 209 209 210 208 206 205 202 198 196 198 200 200 202 206 210 216 221 223 224 225 226 227 229 231 236 240 243 244 244 243 240 240 246 253 257 260 262 263 262 262 262 263 265 266 268 272 273 270 266 268 275 283 287 289 289 288 288 291 291 291 292 291 290 292
183 181 180 179 178 180 184 184 186 190 193 192 193 197 199 198 202 207 207 206 205 205 206 208 208 206 204 204 201 198 199 202 205 207 211 216 221 223 224 225 228 230 232 234 236 240 243 245 244 242 240 239 243 249 254 256 259 262 262 262 262 262 265 268 270 273 277 276 271 266 267 272 278 283 286 287 287 289 292 291 290 292 294 294 296
188 184 178 176 178 181 183 182 182 185 185 180 181 186 188 188 195 203 200 189 186 194 203 209 209 206 205 207 207 203 202 204 206 208 211 214 217 219 221 223 226 230 233 236 239 241 244 246 246 244 240 240 245 250 253 254 256 258 259 259 261 263 267 271 272 273 273 271 269 271 273 275 277 280 285 289 291 293 294 294 292 292 292 292 294
177 174 173 178 182 185 185 183 180 180 181 181 184 185 185 187 195 201 194 187 191 200 207 209 208 205 205 208 210 207 202 201 203 205 209 212 214 216 219 222 225 228 231 234 237 241 243 244 245 244 242 241 243 248 250 251 252 255 257 259 261 265 269 271 271 272 272 271 272 274 275 273 271 274 278 283 286 288 290 292 292 291 289 288 290
174 180 187 190 190 191 191 189 187 187 189 191 191 186 184 189 197 201 201 200 201 203 204 203 202 200 201 205 208 208 206 204 202 202 205 209 212 215 220 223 225 227 230 233 235 239 242 243 243 244 243 240 240 243 249 252 253 255 257 258 261 265 268 269 269 270 272 272 273 273 270 266 266 269 275 280 283 283 283 284 286 286 285 285 285